Location: Vilnius
(54.6830°N, 25.3170°E)
Time: 21:09:20
(UTC+02:00)

ISS - Visible Passes

Search period start: 11 December 2017 00:00
Search period end: 21 December 2017 00:00
Orbit: 402 x 407 km, 51.6° (Epoch: 11 December)

Date Brightness Start Highest point End Pass type
(mag) Time Alt. Az. Time Alt. Az. Time Alt. Az.
11 Dec -2.6 17:37:32 10° W 17:40:39 39° SSW 17:43:07 14° SE visible
11 Dec -0.9 19:14:29 10° WSW 19:15:48 15° SW 19:15:48 15° SW visible
12 Dec -2.8 16:45:19 10° W 16:48:30 46° S 16:51:40 10° ESE visible
12 Dec -1.6 18:21:55 10° W 18:24:32 22° SSW 18:25:59 16° S visible
13 Dec -1.9 17:29:31 10° W 17:32:27 29° SSW 17:35:20 10° SE visible
14 Dec -2.2 16:37:13 10° W 16:40:18 37° SSW 16:43:22 10° SE visible
14 Dec -0.8 18:14:22 10° WSW 18:16:09 14° SW 18:17:55 10° S visible
15 Dec -1.1 17:21:39 10° WSW 17:24:07 19° SSW 17:26:33 10° SSE visible
17 Dec -0.5 17:14:16 10° WSW 17:15:37 12° SW 17:16:58 10° SSW visible
